DW7403 Weather Reports


time (UTC)temp
C
wind
direction
speed
KPH
gust
KPH
rain 1hr
cm
rain 24hr
cm
rain mn
cm
humidity
%
barometer
mb
20260508133737 11 261 6.4 9.7 0.00 0.00 0.00 65 1013.1
20260508130733 11 257 1.6 6.4 0.00 0.00 0.00 67 1012.9
20260508123721 10 233 0.0 0.0 0.00 0.00 0.00 76 1012.8
20260508120733 8 182 0.0 0.0 0.00 0.00 0.00 79 1012.8
20260508113738 7 205 0.0 0.0 0.00 0.00 0.00 85 1012.6
20260508110743 5 163 0.0 0.0 0.00 0.00 0.00 93 1012.5
20260508103724 4 256 0.0 0.0 0.00 0.00 0.00 96 1012.2
20260508100742 3 256 0.0 0.0 0.00 0.00 0.00 95 1012.1
20260508093732 4 256 0.0 0.0 0.00 0.00 0.00 94 1012.1
20260508090725 5 256 0.0 0.0 0.00 0.00 0.00 93 1012.3
20260508083738 5 256 0.0 0.0 0.00 0.00 0.00 92 1012.3
20260508080725 6 257 0.0 0.0 0.00 0.00 0.00 90 1012.2
20260508073729 7 256 0.0 0.0 0.00 0.00 0.00 87 1012.3
20260508070739 8 256 0.0 0.0 0.00 0.00 0.00 88 1012.6
20260508063726 8 256 0.0 0.0 0.00 0.00 0.00 81 1012.9
20260508053739 7 298 0.0 0.0 0.00 0.00 0.00 89 1012.8
20260508050748 7 298 0.0 0.0 0.00 0.00 0.00 88 1012.8
20260508043733 7 298 0.0 0.0 0.00 0.00 0.00 88 1012.8
20260508040746 7 298 0.0 1.6 0.00 0.00 0.00 85 1012.8
20260508033750 7 298 0.0 0.0 0.00 0.00 0.00 86 1012.9
20260508030733 7 298 0.0 0.0 0.00 0.00 0.00 82 1012.7
20260508023734 7 298 0.0 0.0 0.00 0.00 0.00 85 1012.8
20260508020736 7 298 0.0 0.0 0.00 0.00 0.00 83 1012.7
20260508013736 7 298 0.0 0.0 0.00 0.00 0.00 80 1012.7
20260508010720 8 298 0.0 0.0 0.00 0.00 0.00 72 1012.5
20260508003752 10 298 0.0 0.0 0.00 0.00 0.00 66 1012.4
20260508000755 12 298 0.0 0.0 0.00 0.00 0.00 54 1012.1
20260507233732 14 217 3.2 6.4 0.00 0.00 0.00 44 1011.9
20260507230734 14 252 1.6 8.0 0.00 0.00 0.00 43 1011.9
20260507223740 14 313 3.2 11.3 0.00 0.00 0.00 44 1012.1
20260507220728 15 340 4.8 12.9 0.00 0.00 0.00 44 1012.2
20260507210750 14 218 6.4 16.1 0.00 0.00 0.00 43 1011.8
20260507203723 13 229 4.8 22.5 0.00 0.00 0.00 46 1011.7
20260507200755 14 319 1.6 6.4 0.00 0.00 0.00 52 1012.0
20260507193725 13 244 4.8 12.9 0.00 0.00 0.00 51 1012.1
20260507190748 13 260 8.0 17.7 0.00 0.00 0.00 48 1012.2
20260507183753 13 300 9.7 22.5 0.00 0.00 0.00 50 1012.3
20260507180759 13 5 8.0 14.5 0.00 0.00 0.00 52 1012.3
20260507173733 13 252 4.8 12.9 0.00 0.00 0.00 52 1012.6
20260507170759 12 296 4.8 14.5 0.00 0.00 0.00 54 1012.9
20260507163723 12 273 6.4 17.7 0.00 0.00 0.00 50 1013.1
20260507160732 12 186 3.2 12.9 0.00 0.00 0.00 54 1012.9
20260507153725 11 267 6.4 19.3 0.00 0.00 0.00 52 1012.9
20260507150751 11 294 6.4 20.9 0.00 0.00 0.00 55 1012.8
20260507143721 10 209 1.6 11.3 0.00 0.00 0.00 57 1012.9
20260507140732 10 223 6.4 14.5 0.00 0.00 0.00 59 1013.1